Location: Abyssinia Baptist Church
(32.7840°N, 96.7578°W)
Time: 11:01:09
(UTC+00:00)

Meteor 1-31 Rocket - Pass Details

Date: 08 December 2021
Orbit: 519 x 545 km, 97.7° (Epoch: 28 January)

Event Time Altitude Azimuth Distance (km) Brightness Sun altitude
Rises 12:19:38 0° 355° (N) 2,706 6.1 -12.0°
Reaches altitude 10° 12:22:04 10° 341° (NNW) 1,812 5.1 -11.5°
Maximum altitude 12:25:10 23° 289° (WNW) 1,194 3.9 -10.9°
Drops below altitude 10° 12:28:15 10° 236° (SW) 1,807 5.1 -10.3°
Sets 12:30:41 0° 221° (SW) 2,696 6.1 -9.8°
